Location: Ash Swamp
(41.5170°N, 74.6157°W)
Time: 17:24:28
(UTC+00:00)

Cosmos 1833 Rocket - Pass Details

Date: 14 July 2020
Orbit: 832 x 840 km, 71.0° (Epoch: 05 August)

Event Time Altitude Azimuth Distance (km) Brightness Sun altitude
Exits shadow 05:50:06 24° 112° (ESE) 1,662 4.1 -26.0°
Maximum altitude 05:50:45 25° 102° (ESE) 1,642 4.2 -26.0°
Drops below altitude 10° 05:55:10 10° 49° (NE) 2,448 5.8 -25.8°
Sets 05:58:01 0° 37° (NE) 3,388 6.9 -25.7°
